This demonstration page uses our WeatherBlox Daily Observations layout. Learn more.

Hourly Observations for December 30, 2018

Temp ( °F °C ) Dew Point ( °F °C ) Humidity (%) Winds ( mph kmh ) Pressure ( in mb ) Visibility ( mi km ) Precip ( " mm )
12:15 am 00:15 Clear 19 -7.5 15 -9.5 86 86 SW 12 19 30.12 1020 10 16.0934 0 0
12:35 am 00:35 Clear 18 -7.7 15 -9.7 86 86 SW 10 17 30.12 1020 10 16.0934 0 0
12:55 am 00:55 Clear 18 -7.6 15 -9.6 86 86 SW 9 15 30.09 1019 10 16.0934 0 0
1:15 am 01:15 Clear 18 -7.8 14 -9.8 86 86 SW 9 15 30.09 1019 10 16.0934 0 0
1:35 am 01:35 Clear 18 -8 14 -10 86 86 SW 10 17 30.09 1019 10 16.0934 0 0
1:55 am 01:55 Clear 18 -7.9 14 -10 85 85 SW 6 9 30.09 1019 10 16.0934 0 0
2:15 am 02:15 Clear 18 -8 14 -10.1 85 85 SW 9 15 30.09 1019 10 16.0934 0 0
2:35 am 02:35 Clear 18 -7.6 14 -10 83 83 SW 9 15 30.06 1018 10 16.0934 0 0
2:55 am 02:55 Clear 19 -7 15 -9.7 81 81 SW 14 22 30.03 1017 10 16.0934 0 0
3:15 am 03:15 Clear 19 -7 14 -9.8 81 81 SW 13 20 30.03 1017 10 16.0934 0 0
3:35 am 03:35 Clear 19 -7 14 -10 79 79 SW 10 17 30.03 1017 10 16.0934 0 0
3:55 am 03:55 Clear 19 -7 14 -10 79 79 SW 9 15 30.03 1017 10 16.0934 0 0
4:15 am 04:15 Clear 19 -7.3 14 -10.2 80 80 SW 10 17 30 1016 10 16.0934 0 0
4:35 am 04:35 Clear 19 -7.5 14 -10.2 81 81 SW 9 15 29.97 1015 10 16.0934 0 0
4:55 am 04:55 Clear 19 -7.5 13 -10.3 81 81 SSW 14 22 29.97 1015 10 16.0934 0 0
5:15 am 05:15 Clear 18 -8 13 -10.5 82 82 SSW 12 19 29.94 1014 10 16.0934 0 0
5:35 am 05:35 Clear 18 -7.8 13 -10.5 81 81 SSW 12 19 29.94 1014 10 16.0934 0 0
5:55 am 05:55 Clear 17 -8.2 13 -10.7 82 82 SW 10 17 29.94 1014 10 16.0934 0 0
6:15 am 06:15 Clear 18 -7.8 13 -10.5 81 81 SW 8 13 29.94 1014 10 16.0934 0 0
6:35 am 06:35 Clear 18 -7.6 13 -10.5 80 80 SW 9 15 29.94 1014 10 16.0934 0 0
6:55 am 06:55 Clear 19 -7.5 13 -10.5 79 79 SW 6 9 29.94 1014 10 16.0934 0 0
7:15 am 07:15 Clear 19 -7.5 13 -10.3 81 81 SW 5 7 29.94 1014 10 16.0934 0 0
7:35 am 07:35 Clear 19 -7 14 -10 79 79 S 10 17 29.94 1014 10 16.0934 0 0
7:55 am 07:55 Clear 19 -7 14 -10 79 79 SW 7 11 29.94 1014 10 16.0934 0 0
8:15 am 08:15 Sunny 20 -6.7 14 -10 78 78 SW 5 7 29.94 1014 10 16.0934 0 0
8:35 am 08:35 Sunny 21 -6.3 14 -9.8 77 77 SW 7 11 29.94 1014 10 16.0934 0 0
8:55 am 08:55 Sunny 21 -6.2 15 -9.7 77 77 SW 6 9 29.94 1014 10 16.0934 0 0
9:15 am 09:15 Sunny 22 -5.5 15 -9.2 75 75 SW 5 7 29.94 1014 10 16.0934 0 0
9:35 am 09:35 Sunny 24 -4.7 17 -8.6 74 74 WSW 7 11 29.91 1013 10 16.0934 0 0
9:55 am 09:55 Sunny 27 -2.8 17 -8.1 67 67 WSW 7 11 29.91 1013 10 16.0934 0 0
10:15 am 10:15 Sunny 28 -2.5 18 -7.6 68 68 SW 6 9 29.91 1013 10 16.0934 0 0
10:35 am 10:35 Sunny 28 -2.2 19 -7.4 68 68 SW 8 13 29.88 1012 10 16.0934 0 0
10:55 am 10:55 Sunny 28 -2.5 19 -7.4 69 69 SW 8 13 29.91 1013 10 16.0934 0 0
11:15 am 11:15 Sunny 29 -1.9 19 -7.1 68 68 SSW 7 11 29.85 1011 10 16.0934 0 0
11:35 am 11:35 Sunny 28 -2 20 -6.6 71 71 SW 9 15 29.85 1011 10 16.0934 0 0
11:55 am 11:55 Sunny 29 -1.5 20 -6.5 69 69 S 13 20 29.83 1010 10 16.0934 0 0
12:15 pm 12:15 Sunny 29 -1.5 21 -6.2 71 71 S 9 15 29.83 1010 10 16.0934 0 0
12:35 pm 12:35 Sunny 30 -1.3 21 -6.1 70 70 S 10 17 29.83 1010 10 16.0934 0 0
12:55 pm 12:55 Sunny 31 -0.7 21 -5.9 68 68 S 10 17 29.8 1009 10 16.0934 0 0
1:15 pm 13:15 Sunny 32 0 22 -5.6 66 66 SSW 5 7 29.77 1008 10 16.0934 0 0
1:35 pm 13:35 Sunny 32 0 22 -5.4 67 67 SW 3 6 29.77 1008 10 16.0934 0 0
1:55 pm 13:55 Sunny 33 0.7 23 -4.9 66 66 S 7 11 29.74 1007 10 16.0934 0 0
2:15 pm 14:15 Sunny 33 0.6 24 -4.3 70 70 S 3 6 29.74 1007 10 16.0934 0 0
2:35 pm 14:35 Sunny 33 0.8 25 -3.9 71 71 S 6 9 29.74 1007 10 16.0934 0 0
2:55 pm 14:55 Sunny 33 0.8 25 -3.8 72 72 S 7 11 29.71 1006 10 16.0934 0 0
3:15 pm 15:15 Sunny 34 1.2 24 -4.2 68 68 S 6 9 29.71 1006 10 16.0934 0 0
3:35 pm 15:35 Sunny 34 1.1 25 -4.1 69 69 S 9 15 29.71 1006 10 16.0934 0 0
3:55 pm 15:55 Sunny 34 1.1 25 -4 69 69 S 6 9 29.71 1006 10 16.0934 0 0
4:15 pm 16:15 Sunny 33 0.8 26 -3.5 73 73 S 6 9 29.74 1007 10 16.0934 0 0
4:35 pm 16:35 Sunny 33 0.5 26 -3.5 75 75 S 5 7 29.71 1006 10 16.0934 0 0
4:55 pm 16:55 Sunny 32 -0.1 26 -3.6 78 78 S 6 9 29.71 1006 10 16.0934 0 0
5:15 pm 17:15 Sunny 32 -0.2 26 -3.5 79 79 Calm 29.74 1007 10 16.0934 0 0
5:35 pm 17:35 Clear 31 -0.6 26 -3.5 81 81 Calm 29.77 1008 10 16.0934 0 0
5:55 pm 17:55 Clear 30 -1.2 25 -3.8 83 83 S 5 7 29.77 1008 10 16.0934 0 0
6:15 pm 18:15 Clear 30 -1.1 25 -3.9 82 82 S 9 15 29.77 1008 10 16.0934 0 0
6:35 pm 18:35 Clear 28 -2.2 24 -4.5 84 84 S 9 15 29.74 1007 10 16.0934 0 0
6:55 pm 18:55 Clear 28 -2.4 23 -5 83 83 S 6 9 29.74 1007 10 16.0934 0 0
7:15 pm 19:15 Clear 30 -1.2 24 -4.3 80 80 SSW 5 7 29.77 1008 10 16.0934 0 0
7:35 pm 19:35 Clear 29 -1.7 24 -4.6 81 81 S 6 9 29.74 1007 10 16.0934 0 0
7:55 pm 19:55 Clear 27 -3 22 -5.4 84 84 SSW 5 7 29.74 1007 10 16.0934 0 0
8:15 pm 20:15 Clear 26 -3.2 22 -5.6 84 84 SSW 3 6 29.74 1007 10 16.0934 0 0
8:35 pm 20:35 Clear 24 -4.7 19 -7 84 84 Calm 29.77 1008 10 16.0934 0 0
8:55 pm 20:55 Clear 25 -3.9 21 -6.1 85 85 SW 5 7 29.77 1008 10 16.0934 0 0
9:15 pm 21:15 Clear 24 -4.3 20 -6.6 84 84 SW 3 6 29.77 1008 10 16.0934 0 0
9:35 pm 21:35 Clear 19 -7.1 16 -8.8 88 88 Calm 29.8 1009 10 16.0934 0 0
9:55 pm 21:55 Clear 20 -6.5 18 -8 89 89 Calm 29.74 1007 10 16.0934 0 0
10:15 pm 22:15 Clear 23 -5.1 19 -7 87 87 SSW 7 11 29.74 1007 10 16.0934 0 0
10:35 pm 22:35 Clear 19 -7.4 16 -8.8 90 90 S 7 11 29.77 1008 10 16.0934 0 0
10:55 pm 22:55 Clear 20 -6.7 17 -8.1 90 90 SSW 3 6 29.74 1007 10 16.0934 0 0
11:15 pm 23:15 Clear 19 -7.3 17 -8.6 91 91 S 3 6 29.77 1008 10 16.0934 0 0
11:35 pm 23:35 Clear 18 -7.8 15 -9.3 89 89 S 7 11 29.77 1008 10 16.0934 0 0
11:55 pm 23:55 Clear 21 -6.2 19 -7.5 91 91 S 6 9 29.74 1007 10 16.0934 0 0

Powered by AerisWeather